Wetterdaten: Donnerstag, 15.04.2010
Datum Zeit Temp. A. Feuchte A. Luftdruck Regen Wind Richtung Richtung Sonnenschein UV Solar Windben
15.04.2010 00:00 8,6 C 70 % 1017,1 hPa 0,0 mm 1,6 km/h (1 Bft) NO 45 0 min 0 UV-I 0 W/m 8,0 km/h (2 Bft)
15.04.2010 00:10 8,8 C 70 % 1016,9 hPa 0,0 mm 3,2 km/h (1 Bft) N-NO 22 0 min 0 UV-I 0 W/m 9,7 km/h (2 Bft)
15.04.2010 00:20 8,8 C 71 % 1016,9 hPa 0,0 mm 1,6 km/h (1 Bft) N 360 0 min 0 UV-I 0 W/m 4,8 km/h (1 Bft)
15.04.2010 00:30 8,6 C 73 % 1016,9 hPa 0,0 mm 0,0 km/h (0 Bft) N-NO 22 0 min 0 UV-I 0 W/m 4,8 km/h (1 Bft)
15.04.2010 00:40 8,2 C 73 % 1016,9 hPa 0,0 mm 1,6 km/h (1 Bft) N-NO 22 0 min 0 UV-I 0 W/m 8,0 km/h (2 Bft)
15.04.2010 00:50 7,9 C 74 % 1016,9 hPa 0,0 mm 0,0 km/h (0 Bft) O-NO 67 0 min 0 UV-I 0 W/m 4,8 km/h (1 Bft)
15.04.2010 01:00 7,5 C 75 % 1017,0 hPa 0,0 mm 0,0 km/h (0 Bft) O-NO 67 0 min 0 UV-I 0 W/m 3,2 km/h (1 Bft)
15.04.2010 01:10 7,4 C 76 % 1017,1 hPa 0,0 mm 0,0 km/h (0 Bft) O-NO 67 0 min 0 UV-I 0 W/m 4,8 km/h (1 Bft)
15.04.2010 01:20 7,3 C 76 % 1017,1 hPa 0,0 mm 0,0 km/h (0 Bft) N-NO 22 0 min 0 UV-I 0 W/m 1,6 km/h (1 Bft)
15.04.2010 01:30 7,2 C 77 % 1017,2 hPa 0,0 mm 0,0 km/h (0 Bft) N-NO 22 0 min 0 UV-I 0 W/m 3,2 km/h (1 Bft)
15.04.2010 01:40 7,2 C 77 % 1017,2 hPa 0,0 mm 0,0 km/h (0 Bft) N 360 0 min 0 UV-I 0 W/m 1,6 km/h (1 Bft)
15.04.2010 01:50 6,9 C 78 % 1017,1 hPa 0,0 mm 0,0 km/h (0 Bft) N 0 0 min 0 UV-I 0 W/m 0,0 km/h (0 Bft)
15.04.2010 02:00 6,7 C 80 % 1017,1 hPa 0,0 mm 0,0 km/h (0 Bft) N 360 0 min 0 UV-I 0 W/m 3,2 km/h (1 Bft)
15.04.2010 02:10 6,8 C 79 % 1017,2 hPa 0,0 mm 0,0 km/h (0 Bft) N-NO 22 0 min 0 UV-I 0 W/m 4,8 km/h (1 Bft)
15.04.2010 02:20 7,1 C 79 % 1017,1 hPa 0,0 mm 0,0 km/h (0 Bft) N-NO 22 0 min 0 UV-I 0 W/m 3,2 km/h (1 Bft)
15.04.2010 02:30 7,2 C 78 % 1017,0 hPa 0,0 mm 0,0 km/h (0 Bft) N-NO 22 0 min 0 UV-I 0 W/m 3,2 km/h (1 Bft)
15.04.2010 02:40 7,2 C 78 % 1016,9 hPa 0,0 mm 0,0 km/h (0 Bft) N-NO 22 0 min 0 UV-I 0 W/m 1,6 km/h (1 Bft)
15.04.2010 02:50 7,2 C 77 % 1016,8 hPa 0,0 mm 0,0 km/h (0 Bft) N-NO 22 0 min 0 UV-I 0 W/m 4,8 km/h (1 Bft)
15.04.2010 03:00 7,2 C 75 % 1016,8 hPa 0,0 mm 1,6 km/h (1 Bft) N-NO 22 0 min 0 UV-I 0 W/m 6,4 km/h (2 Bft)
15.04.2010 03:10 7,3 C 75 % 1016,8 hPa 0,0 mm 0,0 km/h (0 Bft) N-NO 22 0 min 0 UV-I 0 W/m 6,4 km/h (2 Bft)
15.04.2010 03:20 7,3 C 74 % 1016,8 hPa 0,0 mm 1,6 km/h (1 Bft) N-NO 22 0 min 0 UV-I 0 W/m 6,4 km/h (2 Bft)
15.04.2010 03:30 7,3 C 72 % 1016,8 hPa 0,0 mm 3,2 km/h (1 Bft) N-NO 22 0 min 0 UV-I 0 W/m 8,0 km/h (2 Bft)
15.04.2010 03:40 7,3 C 73 % 1016,8 hPa 0,0 mm 0,0 km/h (0 Bft) N 360 0 min 0 UV-I 0 W/m 6,4 km/h (2 Bft)
15.04.2010 03:50 7,2 C 72 % 1016,9 hPa 0,0 mm 1,6 km/h (1 Bft) N 360 0 min 0 UV-I 0 W/m 8,0 km/h (2 Bft)
15.04.2010 04:00 7,2 C 72 % 1016,8 hPa 0,0 mm 1,6 km/h (1 Bft) O-NO 67 0 min 0 UV-I 0 W/m 4,8 km/h (1 Bft)
15.04.2010 04:10 7,2 C 70 % 1016,8 hPa 0,0 mm 1,6 km/h (1 Bft) N 360 0 min 0 UV-I 0 W/m 6,4 km/h (2 Bft)
15.04.2010 04:20 7,2 C 71 % 1017,0 hPa 0,0 mm 0,0 km/h (0 Bft) N 360 0 min 0 UV-I 0 W/m 3,2 km/h (1 Bft)
15.04.2010 04:30 7,1 C 73 % 1016,8 hPa 0,0 mm 1,6 km/h (1 Bft) N 360 0 min 0 UV-I 0 W/m 4,8 km/h (1 Bft)
15.04.2010 04:40 6,9 C 72 % 1016,9 hPa 0,0 mm 1,6 km/h (1 Bft) N 360 0 min 0 UV-I 0 W/m 8,0 km/h (2 Bft)
15.04.2010 04:50 6,8 C 70 % 1016,9 hPa 0,0 mm 1,6 km/h (1 Bft) N-NO 22 0 min 0 UV-I 0 W/m 6,4 km/h (2 Bft)
15.04.2010 05:00 6,6 C 70 % 1016,8 hPa 0,0 mm 1,6 km/h (1 Bft) N 360 0 min 0 UV-I 0 W/m 6,4 km/h (2 Bft)
15.04.2010 05:10 6,4 C 71 % 1016,9 hPa 0,0 mm 1,6 km/h (1 Bft) N 360 0 min 0 UV-I 0 W/m 8,0 km/h (2 Bft)
15.04.2010 05:20 6,3 C 72 % 1016,9 hPa 0,0 mm 3,2 km/h (1 Bft) N-NO 22 0 min 0 UV-I 0 W/m 9,7 km/h (2 Bft)
15.04.2010 05:30 6,1 C 74 % 1016,9 hPa 0,0 mm 1,6 km/h (1 Bft) N-NO 22 0 min 0 UV-I 0 W/m 6,4 km/h (2 Bft)
15.04.2010 05:40 5,8 C 75 % 1016,9 hPa 0,0 mm 1,6 km/h (1 Bft) N 360 0 min 0 UV-I 0 W/m 8,0 km/h (2 Bft)
15.04.2010 05:50 5,7 C 76 % 1016,9 hPa 0,0 mm 1,6 km/h (1 Bft) N 360 0 min 0 UV-I 0 W/m 8,0 km/h (2 Bft)
15.04.2010 06:00 5,6 C 77 % 1017,0 hPa 0,0 mm 1,6 km/h (1 Bft) N-NO 22 0 min 0 UV-I 0 W/m 8,0 km/h (2 Bft)
15.04.2010 06:10 5,4 C 78 % 1016,9 hPa 0,0 mm 1,6 km/h (1 Bft) N-NO 22 0 min 0 UV-I 0 W/m 6,4 km/h (2 Bft)
15.04.2010 06:20 5,2 C 78 % 1016,9 hPa 0,0 mm 3,2 km/h (1 Bft) N-NO 22 0 min 0 UV-I 0 W/m 9,7 km/h (2 Bft)
15.04.2010 06:30 4,9 C 79 % 1017,0 hPa 0,0 mm 0,0 km/h (0 Bft) N-NO 22 0 min 0 UV-I 0 W/m 4,8 km/h (1 Bft)
15.04.2010 06:40 4,8 C 80 % 1017,1 hPa 0,0 mm 0,0 km/h (0 Bft) N-NO 22 0 min 0 UV-I 0 W/m 8,0 km/h (2 Bft)
15.04.2010 06:50 4,7 C 80 % 1017,3 hPa 0,0 mm 1,6 km/h (1 Bft) N-NO 22 0 min 0 UV-I 7 W/m 4,8 km/h (1 Bft)
15.04.2010 07:00 4,7 C 80 % 1017,3 hPa 0,0 mm 1,6 km/h (1 Bft) N-NO 22 0 min 0 UV-I 11 W/m 11,3 km/h (2 Bft)
15.04.2010 07:10 4,8 C 80 % 1017,2 hPa 0,0 mm 1,6 km/h (1 Bft) N-NO 22 0 min 0 UV-I 16 W/m 6,4 km/h (2 Bft)
15.04.2010 07:20 4,9 C 80 % 1017,3 hPa 0,0 mm 1,6 km/h (1 Bft) N-NO 22 0 min 0 UV-I 21 W/m 6,4 km/h (2 Bft)
15.04.2010 07:30 5,0 C 79 % 1017,3 hPa 0,0 mm 1,6 km/h (1 Bft) N-NO 22 0 min 0 UV-I 30 W/m 6,4 km/h (2 Bft)
15.04.2010 07:40 5,1 C 79 % 1017,4 hPa 0,0 mm 1,6 km/h (1 Bft) N-NO 22 0 min 0 UV-I 37 W/m 6,4 km/h (2 Bft)
15.04.2010 07:50 5,1 C 78 % 1017,4 hPa 0,0 mm 1,6 km/h (1 Bft) N-NO 22 0 min 0 UV-I 46 W/m 8,0 km/h (2 Bft)
15.04.2010 08:00 5,2 C 78 % 1017,6 hPa 0,0 mm 1,1 km/h (1 Bft) N 11 0 min 0 UV-I 52 W/m 6,4 km/h (2 Bft)
15.04.2010 08:10 5,3 C 77 % 1017,7 hPa 0,0 mm 1,6 km/h (1 Bft) N-NO 22 0 min 0 UV-I 67 W/m 4,8 km/h (1 Bft)
15.04.2010 08:20 5,4 C 77 % 1017,7 hPa 0,0 mm 1,6 km/h (1 Bft) N-NO 22 0 min 0 UV-I 83 W/m 8,0 km/h (2 Bft)
15.04.2010 08:30 5,6 C 76 % 1017,7 hPa 0,0 mm 1,6 km/h (1 Bft) N 360 0 min 1 UV-I 102 W/m 6,4 km/h (2 Bft)
15.04.2010 08:40 5,6 C 75 % 1017,7 hPa 0,0 mm 1,6 km/h (1 Bft) N 360 0 min 1 UV-I 116 W/m 8,0 km/h (2 Bft)
15.04.2010 08:50 5,8 C 75 % 1017,7 hPa 0,0 mm 1,6 km/h (1 Bft) N-NO 22 0 min 1 UV-I 125 W/m 6,4 km/h (2 Bft)
15.04.2010 09:00 5,9 C 74 % 1017,8 hPa 0,0 mm 1,6 km/h (1 Bft) N-NO 22 0 min 1 UV-I 139 W/m 6,4 km/h (2 Bft)
15.04.2010 09:10 6,1 C 74 % 1017,8 hPa 0,0 mm 0,0 km/h (0 Bft) N-NO 22 0 min 1 UV-I 160 W/m 6,4 km/h (2 Bft)
15.04.2010 09:20 6,3 C 74 % 1017,8 hPa 0,0 mm 1,6 km/h (1 Bft) N-NO 22 0 min 1 UV-I 200 W/m 4,8 km/h (1 Bft)
15.04.2010 09:30 6,5 C 72 % 1017,8 hPa 0,0 mm 0,0 km/h (0 Bft) N-NO 22 0 min 1 UV-I 202 W/m 4,8 km/h (1 Bft)
15.04.2010 09:40 6,6 C 71 % 1017,9 hPa 0,0 mm 1,6 km/h (1 Bft) N-NW 337 0 min 1 UV-I 202 W/m 4,8 km/h (1 Bft)
15.04.2010 09:50 6,7 C 72 % 1018,0 hPa 0,0 mm 1,6 km/h (1 Bft) N-NO 22 0 min 1 UV-I 200 W/m 8,0 km/h (2 Bft)
15.04.2010 10:00 6,8 C 72 % 1018,0 hPa 0,0 mm 0,0 km/h (0 Bft) N 360 0 min 1 UV-I 225 W/m 4,8 km/h (1 Bft)
15.04.2010 10:10 6,9 C 70 % 1018,2 hPa 0,0 mm 1,6 km/h (1 Bft) N 360 0 min 1 UV-I 239 W/m 6,4 km/h (2 Bft)
15.04.2010 10:20 7,2 C 70 % 1018,3 hPa 0,0 mm 1,6 km/h (1 Bft) N 360 0 min 2 UV-I 253 W/m 8,0 km/h (2 Bft)
15.04.2010 10:30 7,3 C 70 % 1018,3 hPa 0,0 mm 3,2 km/h (1 Bft) N 360 0 min 2 UV-I 304 W/m 14,5 km/h (3 Bft)
15.04.2010 10:40 7,4 C 69 % 1018,3 hPa 0,0 mm 1,6 km/h (1 Bft) W-NW 292 10 min 2 UV-I 350 W/m 9,7 km/h (2 Bft)
15.04.2010 10:50 7,5 C 68 % 1018,4 hPa 0,0 mm 1,6 km/h (1 Bft) N-NO 22 10 min 2 UV-I 432 W/m 8,0 km/h (2 Bft)
15.04.2010 11:00 7,9 C 68 % 1018,3 hPa 0,0 mm 1,6 km/h (1 Bft) NW 315 10 min 2 UV-I 478 W/m 4,8 km/h (1 Bft)
15.04.2010 11:10 8,2 C 67 % 1018,3 hPa 0,0 mm 0,0 km/h (0 Bft) N-NO 22 10 min 2 UV-I 371 W/m 4,8 km/h (1 Bft)
15.04.2010 11:20 8,3 C 67 % 1018,4 hPa 0,0 mm 1,6 km/h (1 Bft) N 360 10 min 2 UV-I 369 W/m 6,4 km/h (2 Bft)
15.04.2010 11:30 8,6 C 65 % 1018,3 hPa 0,0 mm 3,2 km/h (1 Bft) N-NO 22 10 min 2 UV-I 381 W/m 9,7 km/h (2 Bft)
15.04.2010 11:40 8,9 C 64 % 1018,4 hPa 0,0 mm 1,6 km/h (1 Bft) N-NO 22 0 min 2 UV-I 338 W/m 9,7 km/h (2 Bft)
15.04.2010 11:50 8,8 C 65 % 1018,4 hPa 0,0 mm 1,6 km/h (1 Bft) N-NW 337 0 min 2 UV-I 281 W/m 12,9 km/h (3 Bft)
15.04.2010 12:00 9,1 C 63 % 1018,6 hPa 0,0 mm 1,6 km/h (1 Bft) N 360 0 min 2 UV-I 313 W/m 8,0 km/h (2 Bft)
15.04.2010 12:10 9,3 C 62 % 1018,6 hPa 0,0 mm 1,6 km/h (1 Bft) N 360 0 min 2 UV-I 359 W/m 9,7 km/h (2 Bft)
15.04.2010 12:20 9,5 C 62 % 1018,7 hPa 0,0 mm 1,6 km/h (1 Bft) N-NO 22 10 min 3 UV-I 413 W/m 9,7 km/h (2 Bft)
15.04.2010 12:30 9,6 C 61 % 1018,7 hPa 0,0 mm 1,6 km/h (1 Bft) N-NW 337 10 min 3 UV-I 439 W/m 8,0 km/h (2 Bft)
15.04.2010 12:40 9,9 C 59 % 1018,7 hPa 0,0 mm 1,6 km/h (1 Bft) N 360 10 min 3 UV-I 462 W/m 8,0 km/h (2 Bft)
15.04.2010 12:50 10,0 C 59 % 1018,7 hPa 0,0 mm 1,6 km/h (1 Bft) N-NO 22 10 min 3 UV-I 522 W/m 8,0 km/h (2 Bft)
15.04.2010 13:00 10,4 C 59 % 1018,5 hPa 0,0 mm 1,6 km/h (1 Bft) NW 315 10 min 4 UV-I 585 W/m 9,7 km/h (2 Bft)
15.04.2010 13:10 10,8 C 58 % 1018,5 hPa 0,0 mm 1,6 km/h (1 Bft) N-NO 22 10 min 4 UV-I 724 W/m 6,4 km/h (2 Bft)
15.04.2010 13:20 11,3 C 55 % 1018,5 hPa 0,0 mm 3,2 km/h (1 Bft) NW 315 10 min 5 UV-I 856 W/m 14,5 km/h (3 Bft)
15.04.2010 13:30 11,4 C 54 % 1018,4 hPa 0,0 mm 3,2 km/h (1 Bft) W-NW 292 10 min 4 UV-I 766 W/m 9,7 km/h (2 Bft)
15.04.2010 13:40 12,0 C 52 % 1018,2 hPa 0,0 mm 3,2 km/h (1 Bft) W-NW 292 10 min 5 UV-I 798 W/m 11,3 km/h (2 Bft)
15.04.2010 13:50 12,1 C 52 % 1018,2 hPa 0,0 mm 3,2 km/h (1 Bft) W-NW 292 10 min 5 UV-I 816 W/m 16,1 km/h (3 Bft)
15.04.2010 14:00 12,4 C 52 % 1018,2 hPa 0,0 mm 4,8 km/h (1 Bft) W-NW 292 10 min 5 UV-I 775 W/m 14,5 km/h (3 Bft)
15.04.2010 14:10 12,8 C 49 % 1018,2 hPa 0,0 mm 4,8 km/h (1 Bft) N-NO 22 10 min 4 UV-I 823 W/m 16,1 km/h (3 Bft)
15.04.2010 14:20 13,2 C 49 % 1018,2 hPa 0,0 mm 3,2 km/h (1 Bft) N-NO 22 10 min 5 UV-I 853 W/m 17,7 km/h (3 Bft)
15.04.2010 14:30 13,7 C 46 % 1018,2 hPa 0,0 mm 4,8 km/h (1 Bft) N 360 10 min 4 UV-I 800 W/m 17,7 km/h (3 Bft)
15.04.2010 14:40 13,8 C 44 % 1018,1 hPa 0,0 mm 3,2 km/h (1 Bft) N-NO 22 10 min 4 UV-I 775 W/m 17,7 km/h (3 Bft)
15.04.2010 14:50 14,2 C 44 % 1018,0 hPa 0,0 mm 4,8 km/h (1 Bft) N-NO 22 10 min 4 UV-I 765 W/m 16,1 km/h (3 Bft)
15.04.2010 15:00 14,4 C 44 % 1017,9 hPa 0,0 mm 6,4 km/h (2 Bft) N-NO 22 10 min 4 UV-I 747 W/m 19,3 km/h (3 Bft)
15.04.2010 15:10 14,5 C 44 % 1017,8 hPa 0,0 mm 4,8 km/h (1 Bft) N 360 10 min 4 UV-I 737 W/m 20,9 km/h (4 Bft)
15.04.2010 15:20 14,8 C 41 % 1017,7 hPa 0,0 mm 4,8 km/h (1 Bft) N-NO 22 10 min 4 UV-I 742 W/m 17,7 km/h (3 Bft)
15.04.2010 15:30 15,0 C 41 % 1017,7 hPa 0,0 mm 3,2 km/h (1 Bft) N-NO 22 10 min 4 UV-I 735 W/m 9,7 km/h (2 Bft)
15.04.2010 15:40 15,4 C 41 % 1017,7 hPa 0,0 mm 6,4 km/h (2 Bft) N 360 10 min 4 UV-I 707 W/m 22,5 km/h (4 Bft)
15.04.2010 15:50 15,3 C 41 % 1017,6 hPa 0,0 mm 4,8 km/h (1 Bft) N 360 10 min 3 UV-I 694 W/m 16,1 km/h (3 Bft)
15.04.2010 16:00 15,0 C 42 % 1017,5 hPa 0,0 mm 1,5 km/h (1 Bft) N 9 10 min 3 UV-I 650 W/m 3,2 km/h (1 Bft)
15.04.2010 16:10 15,2 C 42 % 1017,6 hPa 0,0 mm 6,4 km/h (2 Bft) N 360 10 min 3 UV-I 677 W/m 20,9 km/h (4 Bft)
15.04.2010 16:20 15,4 C 43 % 1017,4 hPa 0,0 mm 3,2 km/h (1 Bft) N-NO 22 10 min 3 UV-I 631 W/m 14,5 km/h (3 Bft)
15.04.2010 16:30 15,3 C 43 % 1017,4 hPa 0,0 mm 4,8 km/h (1 Bft) N-NO 22 10 min 3 UV-I 603 W/m 16,1 km/h (3 Bft)
15.04.2010 16:40 15,6 C 41 % 1017,3 hPa 0,0 mm 6,4 km/h (2 Bft) N-NO 22 10 min 2 UV-I 577 W/m 19,3 km/h (3 Bft)
15.04.2010 16:50 15,6 C 40 % 1017,3 hPa 0,0 mm 4,8 km/h (1 Bft) N 360 10 min 2 UV-I 543 W/m 17,7 km/h (3 Bft)
15.04.2010 17:00 15,6 C 40 % 1017,3 hPa 0,0 mm 6,4 km/h (2 Bft) N-NO 22 10 min 2 UV-I 527 W/m 17,7 km/h (3 Bft)
15.04.2010 17:10 15,5 C 39 % 1017,2 hPa 0,0 mm 3,2 km/h (1 Bft) N 360 10 min 2 UV-I 497 W/m 14,5 km/h (3 Bft)
15.04.2010 17:20 15,4 C 40 % 1017,2 hPa 0,0 mm 3,2 km/h (1 Bft) N-NO 22 10 min 2 UV-I 475 W/m 16,1 km/h (3 Bft)
15.04.2010 17:30 15,7 C 40 % 1017,2 hPa 0,0 mm 4,8 km/h (1 Bft) N 360 10 min 2 UV-I 446 W/m 16,1 km/h (3 Bft)
15.04.2010 17:40 15,8 C 41 % 1017,3 hPa 0,0 mm 3,2 km/h (1 Bft) N-NO 22 10 min 1 UV-I 425 W/m 17,7 km/h (3 Bft)
15.04.2010 17:50 15,7 C 40 % 1017,2 hPa 0,0 mm 4,8 km/h (1 Bft) N 360 10 min 1 UV-I 401 W/m 16,1 km/h (3 Bft)
15.04.2010 18:00 15,4 C 41 % 1017,2 hPa 0,0 mm 4,8 km/h (1 Bft) N-NO 22 10 min 1 UV-I 366 W/m 14,5 km/h (3 Bft)
15.04.2010 18:10 15,3 C 40 % 1017,2 hPa 0,0 mm 3,2 km/h (1 Bft) N 360 10 min 1 UV-I 334 W/m 11,3 km/h (2 Bft)
15.04.2010 18:20 15,2 C 41 % 1017,2 hPa 0,0 mm 3,2 km/h (1 Bft) N-NO 22 10 min 1 UV-I 302 W/m 11,3 km/h (2 Bft)
15.04.2010 18:30 15,2 C 39 % 1017,2 hPa 0,0 mm 3,2 km/h (1 Bft) N-NO 22 10 min 1 UV-I 269 W/m 16,1 km/h (3 Bft)
15.04.2010 18:40 15,1 C 41 % 1017,2 hPa 0,0 mm 4,8 km/h (1 Bft) NO 45 10 min 1 UV-I 243 W/m 16,1 km/h (3 Bft)
15.04.2010 18:50 14,9 C 40 % 1017,3 hPa 0,0 mm 3,2 km/h (1 Bft) N 360 10 min 1 UV-I 211 W/m 11,3 km/h (2 Bft)
15.04.2010 19:00 14,7 C 41 % 1017,4 hPa 0,0 mm 4,8 km/h (1 Bft) N 360 10 min 1 UV-I 181 W/m 16,1 km/h (3 Bft)
15.04.2010 19:10 14,4 C 43 % 1017,3 hPa 0,0 mm 6,4 km/h (2 Bft) N-NO 22 10 min 0 UV-I 153 W/m 16,1 km/h (3 Bft)
15.04.2010 19:20 14,1 C 43 % 1017,3 hPa 0,0 mm 3,2 km/h (1 Bft) N 360 0 min 0 UV-I 49 W/m 11,3 km/h (2 Bft)
15.04.2010 19:30 13,7 C 45 % 1017,4 hPa 0,0 mm 4,8 km/h (1 Bft) N-NO 22 0 min 0 UV-I 42 W/m 16,1 km/h (3 Bft)
15.04.2010 19:40 13,4 C 46 % 1017,5 hPa 0,0 mm 3,2 km/h (1 Bft) N-NO 22 0 min 0 UV-I 35 W/m 17,7 km/h (3 Bft)
15.04.2010 19:50 13,1 C 46 % 1017,5 hPa 0,0 mm 3,2 km/h (1 Bft) N-NO 22 0 min 0 UV-I 30 W/m 16,1 km/h (3 Bft)
15.04.2010 20:00 12,8 C 46 % 1017,5 hPa 0,0 mm 3,2 km/h (1 Bft) N-NO 22 0 min 0 UV-I 23 W/m 11,3 km/h (2 Bft)
15.04.2010 20:10 12,6 C 47 % 1017,5 hPa 0,0 mm 1,6 km/h (1 Bft) N-NO 22 10 min 0 UV-I 16 W/m 8,0 km/h (2 Bft)
15.04.2010 20:20 12,2 C 49 % 1017,6 hPa 0,0 mm 1,6 km/h (1 Bft) N-NO 22 0 min 0 UV-I 7 W/m 4,8 km/h (1 Bft)
15.04.2010 20:30 11,9 C 50 % 1017,8 hPa 0,0 mm 0,0 km/h (0 Bft) N-NO 22 0 min 0 UV-I 0 W/m 4,8 km/h (1 Bft)
15.04.2010 20:40 11,4 C 52 % 1017,8 hPa 0,0 mm 0,0 km/h (0 Bft) N-NO 22 0 min 0 UV-I 0 W/m 3,2 km/h (1 Bft)
15.04.2010 20:50 11,1 C 53 % 1018,0 hPa 0,0 mm 0,0 km/h (0 Bft) N-NO 22 0 min 0 UV-I 0 W/m 3,2 km/h (1 Bft)
15.04.2010 21:00 10,8 C 55 % 1018,0 hPa 0,0 mm 0,0 km/h (0 Bft) N-NO 22 0 min 0 UV-I 0 W/m 3,2 km/h (1 Bft)
15.04.2010 21:10 10,4 C 57 % 1018,2 hPa 0,0 mm 0,0 km/h (0 Bft) N-NO 22 0 min 0 UV-I 0 W/m 1,6 km/h (1 Bft)
15.04.2010 21:20 9,9 C 58 % 1018,3 hPa 0,0 mm 0,0 km/h (0 Bft) N-NO 22 0 min 0 UV-I 0 W/m 1,6 km/h (1 Bft)
15.04.2010 21:30 9,7 C 57 % 1018,4 hPa 0,0 mm 1,6 km/h (1 Bft) N-NO 22 0 min 0 UV-I 0 W/m 6,4 km/h (2 Bft)
15.04.2010 21:40 9,9 C 57 % 1018,4 hPa 0,0 mm 1,6 km/h (1 Bft) N-NO 22 0 min 0 UV-I 0 W/m 9,7 km/h (2 Bft)
15.04.2010 21:50 10,1 C 57 % 1018,5 hPa 0,0 mm 3,2 km/h (1 Bft) N-NO 22 0 min 0 UV-I 0 W/m 14,5 km/h (3 Bft)
15.04.2010 22:00 9,9 C 58 % 1018,6 hPa 0,0 mm 3,2 km/h (1 Bft) N-NO 22 0 min 0 UV-I 0 W/m 9,7 km/h (2 Bft)
15.04.2010 22:10 9,7 C 59 % 1018,6 hPa 0,0 mm 1,6 km/h (1 Bft) N-NO 22 0 min 0 UV-I 0 W/m 6,4 km/h (2 Bft)
15.04.2010 22:20 9,4 C 61 % 1018,7 hPa 0,0 mm 0,0 km/h (0 Bft) N-NO 22 0 min 0 UV-I 0 W/m 4,8 km/h (1 Bft)
15.04.2010 22:30 9,2 C 61 % 1018,7 hPa 0,0 mm 1,6 km/h (1 Bft) N-NO 22 0 min 0 UV-I 0 W/m 8,0 km/h (2 Bft)
15.04.2010 22:40 9,1 C 62 % 1018,8 hPa 0,0 mm 1,6 km/h (1 Bft) N-NO 22 0 min 0 UV-I 0 W/m 9,7 km/h (2 Bft)
15.04.2010 22:50 9,0 C 62 % 1018,8 hPa 0,0 mm 1,6 km/h (1 Bft) N-NO 22 0 min 0 UV-I 0 W/m 9,7 km/h (2 Bft)
15.04.2010 23:00 8,8 C 64 % 1018,8 hPa 0,0 mm 1,6 km/h (1 Bft) N-NO 22 0 min 0 UV-I 0 W/m 6,4 km/h (2 Bft)
15.04.2010 23:10 8,6 C 65 % 1018,9 hPa 0,0 mm 0,0 km/h (0 Bft) N 360 0 min 0 UV-I 0 W/m 6,4 km/h (2 Bft)
15.04.2010 23:20 8,1 C 67 % 1019,0 hPa 0,0 mm 0,0 km/h (0 Bft) N 360 0 min 0 UV-I 0 W/m 1,6 km/h (1 Bft)
15.04.2010 23:30 7,7 C 68 % 1019,0 hPa 0,0 mm 0,0 km/h (0 Bft) N 0 0 min 0 UV-I 0 W/m 0,0 km/h (0 Bft)
15.04.2010 23:40 7,4 C 69 % 1019,1 hPa 0,0 mm 0,0 km/h (0 Bft) N 360 0 min 0 UV-I 0 W/m 1,6 km/h (1 Bft)
15.04.2010 23:50 7,5 C 69 % 1019,1 hPa 0,0 mm 0,0 km/h (0 Bft) N 360 0 min 0 UV-I 0 W/m 4,8 km/h (1 Bft)
_ Min-Zeit 06:40 17:10 02:50 - 00:30 - - - - - 01:50
Minimum _ 4,7 C 39 % 1016,8 hPa - 0,0 km/h (0 Bft) - - - - - 0,0 km/h (0 Bft)
_ Max-Zeit 17:40 02:00 23:40 00:00 15:00 - - 10:40 13:20 13:20 15:40
Maximum _ 15,9 C 80 % 1019,1 hPa 0,0 mm 6,4 km/h
N-NO (2 Bft)
- - 10 min 5 UV-I 856 W/m 22,5 km/h
N (4 Bft)
Durchschnitt _ 9,6 C 62 % 1017,7 hPa #0,0 mm 2,0 km/h (1 Bft) N-NO - #8:10 h 2 UV-I 375 W/m 9,0 km/h (2 Bft)